Location: Unspecified
(0.0000°N, 0.0000°E)
Time: 09:59:40
(UTC+00:00)

SRMSAT - Pass Details

Date: 31 March 2019
Orbit: 849 x 865 km, 20.0° (Epoch: 26 April)

Event Time Altitude Azimuth Distance (km) Brightness Sun altitude
Rises 19:40:03 0° 236° (WSW) 3,418 ? -23.9°
Reaches altitude 10° 19:42:47 10° 229° (SW) 2,478 ? -24.6°
Enters shadow 19:48:08 40° 166° (SSE) 1,224 ? -25.9°
